User: anonymous   Login
Location: Coffee Creek Observatory
(38.8077°N, 94.7179°W)
Time: 23:38:39
(UTC-06:00)
Language:

Lacrosse 4 Rocket - Orbit

View from above orbital plane
View from above orbital plane
View from above satellite
View from above satellite

Ground track
Ground track

The orbit data is extracted from the following two-line orbital elements,

1 26474U 00047B   14331.15664111  .00003723  00000-0  34964-3 0  8039
2 26474 067.9970 256.1780 0064875 268.1536 091.2174 14.93510280775931
Epoch (UTC): 27 November 2014 03:45:33
Eccentricity: 0.0064875
inclination: 67.9970°
perigee height: 542 km
apogee height: 632 km
right ascension of ascending node: 256.1780°
argument of perigee: 268.1536°
revolutions per day: 14.93510280
mean anomaly at epoch: 91.2174°
orbit number at epoch: 77593

The dashed part of the orbit path shows where the satellite is in the earth's shadow,  

DLR